CHINASAT 6D

Last updated on Tue Nov 21 2023 00:02:41 GMT+0000 (Coordinated Universal Time)

1 52255U 22038A 23324.48792179 -.00000348 00000+0 00000+0 0 9999 2 52255 0.0335 275.3597 0003110 340.0111 104.6202 1.00273205 5993
UTC large
Height (km)
Speed (km/s)
/
Latitude / Longitude
Inclination (degrees)
Orbital Period (minutes)
Azimuth
Elevation
Range (km)
Doppler Factor

Next 0 passes for location: London (51.5072 / 0.1276)

Sorry there are no passes over London.